Regional Weather Roundup
Issued by NWS Wakefield, VA

Home | Current Version | Previous Version | Text Only | Print | Product List | Glossary Off
Versions: 1 2 3 4 5 6 7 8 9 10 11 12 13 14 15 16 17 18 19 20 21 22 23 24 25 26 27 28 29 30 31 32 33 34 35 36 37 38 39 40 41 42 43 44 45 46 47 48 49 50

000
ASUS41 KAKQ 181310
RWRAKQ

REGIONAL WEATHER ROUNDUP
NATIONAL WEATHER SERVICE WAKEFIELD VA
900 AM EDT THU SEP 18 2014

Note: "fair" indicates few or no clouds below 12,000 feet with no
significant weather and/or obstructions to visibility. * = Denotes
station may not report precipitation (e.g., rain,snow,etc.),
thunder or fog.

VAZ042-051-052>054-056-181400-
NORTHERN VIRGINIA

CITY           SKY/WX    TMP DP  RH WIND       PRES   REMARKS
WASH NATIONAL  CLOUDY    68  58  70 CALM      30.01S
DULLES         PTSUNNY   60  56  86 NW5       30.01S
FORT BELVOIR   PTSUNNY   63  58  82 E1        30.01S
QUANTICO       PTSUNNY   65  59  81 CALM      30.01F
FREDERICKSBRG* MOSUNNY   62  60  94 CALM      30.00S
STAFFORD*      MOSUNNY   61  61 100 CALM      30.05S
WARRENTON      PTSUNNY   60  60  98 CALM      30.00S
CULPEPER*      SUNNY     59  55  88 CALM      30.02S
MANASSAS*      NOT AVBL
LEESBURG*      CLOUDY    61  55  82 CALM      30.02S
WINCHESTER     PTSUNNY   59  54  82 CALM      30.02S
FRONT ROYAL*   CLOUDY    55  54  94 CALM      30.02S
LURAY*         CLOUDY    55  55 100 CALM      30.02S
$$

VAZ048-049-060>072-079>083-181400-
CENTRAL AND SOUTH CENTRAL VIRGINIA...AND NORTH CENTRAL NORTH CAROLINA

CITY           SKY/WX    TMP DP  RH WIND       PRES   REMARKS
RICHMOND       MOSUNNY   66  60  81 CALM      30.01R
CHESTERFIELD*  MOSUNNY  N/A N/A N/A CALM      30.02R
PETERSBURG*    SUNNY     63  60  89 CALM      30.02R
HANOVER        PTSUNNY   66  61  84 CALM      30.02S
TAPPAHANNOCK*  MOSUNNY   65  60  84 CALM      30.02R
CHARLOTTSVILLE MOSUNNY   59  55  87 SW3       30.01S
ORANGE*        MOSUNNY   59  55  88 CALM      30.02R
LOUISA*        MOSUNNY   64  61  88 CALM      30.00S
FARMVILLE*     PTSUNNY   61  61 100 CALM      30.00R
CREWE*         PTSUNNY   63  59  88 CALM      30.02R
FORT PICKETT*  SUNNY     64  60  85 CALM      30.02R
LUNENBURG*     MOSUNNY   65  62  87 CALM      30.02R
SOUTH HILL*    MOSUNNY   66  64  94 CALM      30.06R
LAWRENCEVILLE* SUNNY     65  61  86 CALM      30.00S
ROANOKE RAPIDS SUNNY     63  61  94 CALM      30.01R
RALEIGH        MOSUNNY   66  60  81 E5        30.01R
$$

VAZ088>098-181400-
SOUTHEAST VIRGINIA

CITY           SKY/WX    TMP DP  RH WIND       PRES   REMARKS
NORFOLK        SUNNY     71  56  58 NE8       29.99S
VIRGINIA BEACH SUNNY     71  60  68 NE13      29.98S
NORFOLK NAVAL  MOSUNNY   73  58  59 E8        30.00S
WEST POINT*    PTSUNNY   68  62  81 CALM      30.03R
NEWPORT NEWS   SUNNY     73  62  68 CALM      30.00R
LANGLEY AFB    SUNNY     70  60  70 NE7       29.99S
FORT EUSTIS    SUNNY     70  70 100 N3        29.99R
WILLIAMSBURG*  SUNNY     66  64  94 CALM      30.01S
HR EXEC AP*    SUNNY     64  63  94 CALM      30.01S
FRANKLIN*      SUNNY     64  61  88 CALM      30.00S
WAKEFIELD      SUNNY     67  62  84 CALM      30.01R
$$

VAZ020-022-025-037-045-181400-
WEST CENTRAL AND SOUTHWEST VIRGINIA

CITY           SKY/WX    TMP DP  RH WIND       PRES   REMARKS
STAUNTON*      PTSUNNY   56  52  88 CALM      30.05R
HOT SPRINGS VA CLOUDY    55  52  90 W5        30.09S FOG
LYNCHBURG      CLOUDY    61  59  93 CALM      30.03S
DANVILLE       PTSUNNY   64  61  90 CALM      30.02R
SOUTH BOSTON*  NOT AVBL
MARTINSVILLE   PTSUNNY   64  63  97 CALM      30.05S
ROANOKE        PTSUNNY   61  56  83 CALM      30.05R
BLACKSBURG     FOG       57  57 100 CALM      30.07S VSB<1/4
DUBLIN*        FOG       58  58 100 CALM      30.06S VSB<1/4
MARION*        FOG       57  56  96 CALM      30.09R VSB<1/4
HILLSVILLE*    FOG       56  56 100 CALM      30.06R VSB 1/2
RICHLANDS*     FOG       57  55  95 CALM      30.07R VSB<1/4
WISE*          PTSUNNY   57  57 100 N5        30.08R
ABINGDON*      CLOUDY    58  58 100 CALM      30.05S FOG
$$

MDZ021>025-VAZ099-100-181400-
SOUTHERN MARYLAND AND THE DELMARVA PENINSULA

CITY           SKY/WX    TMP DP  RH WIND       PRES   REMARKS
PATUXENT RIVER PTSUNNY   67  60  78 W3        30.01R
BAY BRIDGE APT   N/A     68  55  64 W3        30.01R
LEONARDTOWN    CLOUDY    64  59  82 W3        30.02R
DOVER          SUNNY     64  55  72 W5        29.99S
GEORGETOWN     SUNNY     63  54  72 VRB5      30.02R
EASTON         PTSUNNY   66  57  72 CALM      30.04R
CAMBRIDGE      MOSUNNY   63  55  77 CALM      30.00S
SALISBURY      SUNNY     65  56  72 CALM      30.01R
OCEAN CITY     SUNNY     67  58  72 NW3       30.01R
WALLOPS ISLAND SUNNY     67  57  70 CALM      30.01S
ACCOMACK*      SUNNY     66  55  68 CALM      30.01R
$$

NCZ012>017-030>032-181400-
EASTERN NORTH CAROLINA

CITY           SKY/WX    TMP DP  RH WIND       PRES   REMARKS
ELIZABETH CITY SUNNY     69  61  75 N5        29.98S
AHOSKIE*       SUNNY     65  60  85 CALM      30.00S
EDENTON*       MOSUNNY   66  63  88 NE5       29.99R
CURRITUCK*     SUNNY     71  56  58 NE8       29.99S
KILL DEVIL HLS SUNNY     72  57  58 NE7       29.96S
MANTEO         SUNNY     72  58  60 NE10      29.97S
CAPE HATTERAS  SUNNY     72  61  68 NE6G16    29.96R
TARBORO*       PTSUNNY   66  62  86 NE3       30.01R
GOLDSBORO      SUNNY     67  66  97 CALM      29.97S
WASHINGTON     MOSUNNY   66  63  90 NE5       29.99R
GREENVILLE     MOSUNNY   68  63  83 NE5       30.00S
NEW BERN       MOSUNNY   71  63  75 NE5       29.98R
WILMINGTON     SUNNY     71  66  84 NE10      29.95R
$$

VAZ048-181400-
ELSEWHERE

CITY           SKY/WX    TMP DP  RH WIND       PRES   REMARKS
HARRISBURG PA  PTSUNNY   58  50  75 NW3       30.01S
BALTIMORE      PTSUNNY   63  56  78 CALM      30.00S
ANNAPOLIS      MOSUNNY   66  54  65 NW3       30.00S
ANDREWS AFB    PTSUNNY   64  58  82 S1        30.00S
WILMINGTON DE  CLOUDY    62  54  74 CALM      30.02S
PHILADELPHIA   MOSUNNY   65  51  60 NW3       30.01S
WILDWOOD NJ*   SUNNY     64  55  72 N3        30.02R
ATLANTIC CITY  SUNNY     63  54  72 NW6       30.01S
HENDERSON NC   SUNNY     64  61  91 CALM      30.01R
GREENSBORO     PTSUNNY   65  63  93 NE3       30.01S FOG
ROCKY MOUNT    SUNNY     67  62  84 NE3       30.00R
FAYETTEVILLE   MOSUNNY   69  63  81 NE6       29.98R
CHARLOTTE      CLOUDY    67  64  90 CALM      30.01R FOG
$$

VAZ100-181400-
MARINE

STATION/POSITION TIME  TEMP    WIND        PRES    WAVE   SWELL
                       AIR SEA DIR/SP/G            HT/PER HT/PER
                 (UTC) (F)     (DEG/KT/KT) (MB)    (FT/S) (FT/S)
44066 TX TWR #4  1300   68 73  350/ 10/ 12 1015.6R   5/14   5/14
CAPE MAY NJ      1300   68 75  360/  2/  4 1015.6R
LEWES DE         1300   65 72  280/  2/  3 1015.8S
15NM E FENWICK I 1300   70 72              1015.7F   4/13
OCEAN-CITY-INLET 1300   65 71   10/  3/  4 1015.5R
WACHAPREAGUE VA  1300   68 72  350/  2/  4 1016.0R
THOMAS POINT MD  1300   65 74  280/  3/  4 1017.1R
GOOSES REEF MD   1300   68     270/  6/  8 1016.4S
COVE POINT MD    1300   68     180/  1/  2 1015.9R
SOLOMONS ISLAND  1300      76                N/A
BISHOPS HEAD MD  1300   68 71  120/  4/  5 1015.5R
PINEY POINT MD   1300          300/  5/  6   N/A
POTOMAC MD       1300   71     180/  2/  4 1015.2R
CAMBRIDGE MD     1300   65 74  110/  2/  3 1015.7R
LEWISETTA VA     1300   67 73  230/  1/  2 1015.6R
RAPPAHANNOCK LGT 1300           50/  7/  8 1016.3R
STINGRAY PT      1300   71      80/  8/ 10   N/A
YORK RVR RNG VA  1300   71      70/  9/ 11 1015.0R
YORKTOWN VA      1300   70 76   30/  5/  6 1015.3R
JAMESTOWN VA     1300   66     350/  2/  4   N/A
DOMINION TERM VA 1300   71      50/  5/  7 1015.5R
KIPTOPEKE VA     1300      78   40/  3/  7   N/A
CHES BAY BRIDGE  1300   70 75   40/ 12/ 14 1014.8R
CAPE HENRY VA    1300   71      40/ 12/ 14 1014.1R
CHESAPEAKE LGHT  1200   70      30/ 12/ 14 1016.0R
WILLOUBY STN VA  1300   71      60/  8/  9 1014.2R
S CRANEY ISL VA  1300           30/  7/  8 1015.2R
CAPE HENRY BUOY  1300      75                N/A     3/13   2/13
1ST LANDING BUOY 1300   71      40/ 12/ 14 1015.1R
CAPE CHARLES BUO 1300      75                N/A     3/13   3/13
OFFSHORE WE BUOY 1300      74                N/A     4/10   5/10
64NM E OF VA BCH 1300   71 77   20/ 16/ 19 1014.4R   4/12   3/12
DUCK PIER NC     1300   71 75   30/ 13/ 17 1014.2R
44100 DUCK FRF   1200      74                N/A     4/13   3/13
44056 DUCK FRF   1300                        N/A     4/13   3/13
OREGON INLET NC  1300   72 74   30/ 12/ 16 1014.6R
HATTERAS NC      1300   74 77   30/ 12/ 16 1014.7R
DIAMOND SHLS NC  1300   75     360/ 17/ 21 1013.4R   6/13   3/13
CAPE LOOKOUT NC  1200   75      40/ 13/ 15 1013.4R
$$



USA.gov is the U.S. government's official web portal to all federal, state and local government web resources and services.